Regional Weather Roundup
Issued by NWS Cleveland, OH

Home | Current Version | Previous Version | Graphics & Text | Print | Product List | Glossary On
Versions: 1 2 3 4 5 6 7 8 9 10 11 12 13 14 15 16 17 18 19 20 21 22 23 24 25 26 27 28 29 30 31 32 33 34 35 36 37 38 39 40 41 42 43 44 45 46 47 48 49 50
000
ASUS41 KCLE 010710
RWRCLE
OHIO REGIONAL WEATHER ROUNDUP
NATIONAL WEATHER SERVICE CLEVELAND, OH
300 AM EDT SAT AUG 01 2015

NOTE: "FAIR" INDICATES FEW OR NO CLOUDS BELOW 12,000 FEET WITH NO
SIGNIFICANT WEATHER AND/OR OBSTRUCTIONS TO VISIBILITY.

OHZ001>008-015>018-024>027-034-035-043-044-010800-
   NORTHWEST OHIO

CITY           SKY/WX    TMP DP  RH WIND       PRES   REMARKS
DEFIANCE       CLEAR     62  54  74 SW3       29.95S
FINDLAY        CLEAR     62  55  77 W5        29.94S
TOLEDO EXPRESS CLEAR     63  54  72 W8        29.92F
TOLEDO EXEC    CLEAR     63  53  70 W7        29.93S
LIMA           CLEAR     63  56  78 SW3       29.96F
$$

OHZ009>014-019>023-028>033-038-089-010800-
   NORTHEAST OHIO

CITY           SKY/WX    TMP DP  RH WIND       PRES   REMARKS
CLE-HOPKINS    PTCLDY    64  58  80 SW7       29.92S
CLE-LAKEFRONT  PTCLDY    76  60  57 NW21      29.87S
CUY CO. ARPT   NOT AVBL
LORAIN-ELYRIA  CLEAR     65  55  70 W7        29.92S
ASHTABULA      PTCLDY    65  58  78 W5        29.88S
AKRON-CANTON   PTCLDY    66  58  75 W6        29.92S
WOOSTER        PTCLDY    63  59  87 W6        29.94S
MANSFIELD      CLEAR     65  58  78 W6        29.95S
YOUNGSTOWN     MOCLDY    66  59  78 SW8       29.90S
$$

OHZ042-051>053-060>062-070>072-077>081-010800-
  SOUTHWEST OHIO

CITY           SKY/WX    TMP DP  RH WIND       PRES   REMARKS
CINC-COVINGTON CLEAR     68  61  78 W7        30.00S
CINC-LUNKEN    CLEAR     70  61  73 VRB5      29.99S
HAMILTON       CLEAR     64  61  90 W3        30.00S
DAYTON         CLEAR     65  60  84 W7        29.99F
WRIGHT-PAT AFB CLEAR     68  61  78 VRB3      29.97S
DAYTON GENERAL CLEAR     68  57  68 NW5       29.98S
WILMINGTON     CLEAR     69  58  67 W9        29.98S
$$

OHZ036-037-039>041-045>050-054>059-063>069-073>076-082>088-010800-
  CENTRAL AND SOUTHEAST OHIO

CITY           SKY/WX    TMP DP  RH WIND       PRES   REMARKS
COLUMBUS       PTCLDY    69  62  78 CALM      29.94S
OSU AIRPORT    CLEAR     66  61  84 W5        29.95F
BOLTON FIELD   CLEAR     67  63  89 NW5       29.96S
RICKENBACK AFB CLEAR     66  62  87 CALM      29.95S
NEWARK         PTCLDY    67  62  84 NW6       29.94S
MARION         CLEAR     66  59  78 W6        29.96S
LANCASTER      PTCLDY    68  62  81 W3        29.95S
ZANESVILLE     PTCLDY    69  62  78 W5        29.93F
NEW PHILLY     CLEAR     65  60  84 CALM      29.93S
$$



USA.gov is the U.S. government's official web portal to all federal, state and local government web resources and services.